Location: Grand Rapids
(42.9630°N, 85.6680°W)
Time: 07:29:32
(UTC-04:00)

Tiros 1 - Pass Details

Date: 21 April 2025
Orbit: 620 x 652 km, 48.4° (Epoch: 13 May)

Event Time Altitude Azimuth Distance (km) Brightness Sun altitude
Exits shadow 05:22:30 19° 198° (SSW) 1,556 8.7 -15.4°
Maximum altitude 05:25:22 36° 141° (SE) 1,025 8.2 -15.0°
Drops below altitude 10° 05:29:42 10° 75° (ENE) 2,056 11.0 -14.3°
Sets 05:32:11 0° 67° (ENE) 2,969 12.4 -13.9°
